Location: Red Deer
(52.2681°N, 113.8112°W)
Time: 21:23:37
(UTC-06:00)

EO-79 - Visible Passes

Search period start: 30 May 2023 00:00
Search period end: 09 June 2023 00:00
Orbit: 578 x 594 km, 98.0° (Epoch: 30 May)

Date Brightness Start Highest point End Pass type
(mag) Time Alt. Az. Time Alt. Az. Time Alt. Az.
30 May ? 03:42:56 10° NNE 03:47:01 50° E 03:51:05 10° S visible
31 May ? 03:49:43 10° NNE 03:53:52 58° ESE 03:57:59 10° S visible
01 Jun ? 03:56:30 10° NNE 04:00:41 68° ESE 04:04:51 10° S visible
02 Jun ? 02:30:43 10° ENE 02:31:21 10° E 02:31:59 10° E visible
02 Jun ? 04:03:18 10° NNE 04:07:30 79° ESE 04:11:41 10° SSW visible
03 Jun ? 02:36:36 10° ENE 02:38:15 12° E 02:39:54 10° ESE visible
03 Jun ? 04:10:05 10° NNE 04:14:18 90° NW 04:18:29 10° SSW visible
04 Jun ? 02:42:55 10° NE 02:45:07 14° E 02:47:20 10° ESE visible
04 Jun ? 04:16:53 10° NNE 04:21:05 78° WNW 04:25:16 10° SSW visible
05 Jun ? 02:49:22 10° NE 02:51:59 16° E 02:54:36 10° SE visible
05 Jun ? 04:23:41 10° N 04:27:52 68° WNW 04:32:01 10° SSW visible
06 Jun ? 02:55:54 10° NE 02:58:50 18° E 03:01:46 10° SE visible
07 Jun ? 03:02:28 10° NE 03:05:40 21° E 03:08:52 10° SE visible
08 Jun ? 03:09:03 10° NE 03:12:29 24° E 03:15:53 10° SSE visible
